NOAA 16 DEB, 41361

Orbit data source: Space-Track

NOAA 16 DEB, 41361 is space debris in SSO originally from a launch on Thu, 21 Sep 2000 UTC launched from the Air Force Western Test Range (AFWTR). Debris objects in space refer to the collection of defunct objects orbiting the Earth. Examples of debris include non-operational satellites, rocket bodies, and fragments generated from explosions, collisions, or faulty payload assembly.

Loading next visibility...
Identifier
41361, 2000-055JE
Orbit
SSO
Country
Flag of USUS
Related business
Manufacturer
Unknown
Mission
Spacecraft
Bus & Motor
Unknown
Mass
Unknown
Launch date (UTC)
2000-09-21 (25 years ago)
Launch vehicle
Unknown
Launch site
Air Force Western Test Range (AFWTR)
Object type
Payload
Rocket body
Debris
Shape & HBR
Unknown shape, 0.1 m
Radar Cross Section
Small (<0.1 m²)

Expand to show TLE details & history
Last TLE update: 12 hours ago

TLE from 12 hours ago
0 NOAA 16 DEB
1 41361U 00055JE  25296.55961730  .00004698  00000-0  22395-2 0  9995
2 41361  98.7540 337.3153 0032476 211.5735 148.3493 14.19467346498942
Epoch: 2025-10-23T13:25Z
TLE epoch observation values (Epoch: 2025-10-23T13:25:50.934Z)
Latitude
-0.00004°
Longitude
103.63595°
Altitude
850.011 km
Speed
7.417 km/s
True Right ascension
22h 29m 15s
True Declination
0° 00' 00"
Sunlit
Object was in full shadow at epoch
Visualization orbit readout
Latitude
Unknown
Longitude
Unknown
Altitude
Unknown
Speed
Unknown
Apparent Right ascension
Unknown
Apparent Declination
Unknown
Sunlit
N/A
Visualization observer readout
Local Sidereal Time
20:58:13
Azimuth
Unknown
Elevation
Unknown
Doppler factor
Unknown
Orbital elements
Apogee altitude
847.707 km
Perigee altitude
800.925 km
Semi-major axis
7,202.453 km
Eccentricity
0.00325
Inclination
98.754°
RAAN
337.3153°
Arg. of periapsis
211.5735°
True anomaly
148.54391°
Mean anomaly
148.3493°
Eccentric anomaly
148.44667°
Mean motion
3.55077 °/min
Orbital period
101.39 mins
BSTAR
0.0022395
Loading maneuver chart data...
Computing Atmospheric mass density...
Loading historical data...
Loading historical data...
Loading historical data...
Loading historical data...
Loading historical data...
Loading historical data...
Loading historical data...

Documentation

Showing up to 5 results
|